Time,TemperatureF,DewpointF,PressureIn,WindDirection,WindDirectionDegrees,WindSpeedMPH,WindSpeedGustMPH,Humidity,HourlyPrecipIn,Conditions,Clouds,dailyrainin,SolarRadiationWatts/m^2,SoftwareType,DateUTC
2013-01-21 00:13:00,45.0,21.0,-100.00,NE,55,1.0,5.0,38,0.00,,,-99.99,0.000000,,2013-01-21 08:13:00,
2013-01-21 00:22:00,45.0,21.0,-100.00,NE,55,1.0,5.0,38,0.00,,,-99.99,0.000000,,2013-01-21 08:22:00,
2013-01-21 00:32:00,45.0,21.0,-100.00,NE,55,1.0,5.0,38,0.00,,,-99.99,0.000000,,2013-01-21 08:32:00,
2013-01-21 00:42:00,45.0,21.0,-100.00,NE,55,1.0,5.0,38,0.00,,,-99.99,0.000000,,2013-01-21 08:42:00,
2013-01-21 00:52:00,45.0,21.0,-100.00,NE,55,1.0,5.0,38,0.00,,,-99.99,0.000000,,2013-01-21 08:52:00,
2013-01-21 01:12:00,56.0,14.0,-100.00,East,88,3.0,10.0,19,0.00,,,0.00,0.000000,,2013-01-21 09:12:00,
2013-01-21 01:22:00,56.0,14.0,-100.00,East,88,3.0,10.0,19,0.00,,,0.00,0.000000,,2013-01-21 09:22:00,
2013-01-21 02:12:00,55.0,16.0,-100.00,East,92,2.0,7.0,21,-99.99,,,0.00,0.000000,,2013-01-21 10:12:00,
2013-01-21 02:22:00,55.0,16.0,-100.00,East,92,2.0,7.0,21,-99.99,,,0.00,0.000000,,2013-01-21 10:22:00,
2013-01-21 03:12:00,54.0,17.0,-100.00,ESE,117,2.0,7.0,23,-99.99,,,0.00,0.000000,,2013-01-21 11:12:00,
2013-01-21 03:22:00,54.0,17.0,-100.00,ESE,117,2.0,7.0,23,-99.99,,,0.00,0.000000,,2013-01-21 11:22:00,
2013-01-21 04:22:00,48.0,15.0,-100.00,SE,142,2.0,5.0,26,-99.99,,,-99.99,0.000000,,2013-01-21 12:22:00,
2013-01-21 05:12:00,49.0,16.0,-100.00,SSE,152,3.0,5.0,26,-99.99,,,0.00,0.000000,,2013-01-21 13:12:00,
2013-01-21 05:23:00,49.0,16.0,-100.00,SSE,152,3.0,5.0,26,-99.99,,,0.00,0.000000,,2013-01-21 13:23:00,
2013-01-21 06:12:00,55.0,17.0,-100.00,East,96,4.0,9.0,22,-99.99,,,0.00,0.000000,,2013-01-21 14:12:00,
2013-01-21 06:23:00,55.0,17.0,-100.00,East,96,4.0,9.0,22,-99.99,,,0.00,0.000000,,2013-01-21 14:23:00,
2013-01-21 07:23:00,50.0,18.0,-100.00,SSE,160,2.0,8.0,28,-99.99,,,0.00,0.000000,,2013-01-21 15:23:00,
2013-01-21 08:12:00,52.0,19.0,-100.00,ENE,70,4.0,7.0,27,0.00,,,0.00,8.000000,,2013-01-21 16:12:00,
2013-01-21 08:23:00,52.0,19.0,-100.00,ENE,70,4.0,7.0,27,0.00,,,0.00,8.000000,,2013-01-21 16:23:00,
2013-01-21 09:22:00,57.0,22.0,-100.00,South,170,3.0,9.0,25,-99.99,,,-99.99,20.000000,,2013-01-21 17:22:00,
2013-01-21 09:42:00,57.0,22.0,-100.00,South,170,3.0,9.0,25,-99.99,,,-99.99,20.000000,,2013-01-21 17:42:00,
2013-01-21 09:52:00,57.0,22.0,-100.00,South,170,3.0,9.0,25,-99.99,,,-99.99,20.000000,,2013-01-21 17:52:00,
2013-01-21 10:12:00,60.0,28.0,-100.00,SW,232,3.0,5.0,30,-99.99,,,-99.99,116.000000,,2013-01-21 18:12:00,
2013-01-21 10:22:00,60.0,28.0,-100.00,SW,232,3.0,5.0,30,-99.99,,,-99.99,116.000000,,2013-01-21 18:22:00,
2013-01-21 10:33:00,60.0,28.0,-100.00,SW,232,3.0,5.0,30,-99.99,,,-99.99,116.000000,,2013-01-21 18:33:00,
2013-01-21 10:42:00,60.0,28.0,-100.00,SW,232,3.0,5.0,30,-99.99,,,-99.99,116.000000,,2013-01-21 18:42:00,
2013-01-21 10:52:00,60.0,28.0,-100.00,SW,232,3.0,5.0,30,-99.99,,,-99.99,116.000000,,2013-01-21 18:52:00,
2013-01-21 11:12:00,68.0,30.0,-100.00,SE,139,3.0,7.0,24,0.00,,,0.00,406.000000,,2013-01-21 19:12:00,
2013-01-21 11:22:00,68.0,30.0,-100.00,SE,139,3.0,7.0,24,0.00,,,0.00,406.000000,,2013-01-21 19:22:00,
2013-01-21 11:42:00,68.0,30.0,-100.00,SE,139,3.0,7.0,24,0.00,,,0.00,406.000000,,2013-01-21 19:42:00,
2013-01-21 11:52:00,68.0,30.0,-100.00,SE,139,3.0,7.0,24,0.00,,,0.00,406.000000,,2013-01-21 19:52:00,
2013-01-21 12:22:00,74.0,23.0,-100.00,South,175,5.0,7.0,15,0.00,,,0.00,496.000000,,2013-01-21 20:22:00,
2013-01-21 12:32:00,74.0,23.0,-100.00,South,175,5.0,7.0,15,0.00,,,0.00,496.000000,,2013-01-21 20:32:00,
2013-01-21 12:43:00,74.0,23.0,-100.00,South,175,5.0,7.0,15,0.00,,,0.00,496.000000,,2013-01-21 20:43:00,
2013-01-21 12:52:00,74.0,23.0,-100.00,South,175,5.0,7.0,15,0.00,,,0.00,496.000000,,2013-01-21 20:52:00,
2013-01-21 13:12:00,74.0,20.0,-100.00,WNW,296,6.0,11.0,13,0.00,,,0.00,534.000000,,2013-01-21 21:12:00,
2013-01-21 13:22:00,74.0,20.0,-100.00,WNW,296,6.0,11.0,13,0.00,,,0.00,534.000000,,2013-01-21 21:22:00,
2013-01-21 13:33:00,74.0,20.0,-100.00,WNW,296,6.0,11.0,13,0.00,,,0.00,534.000000,,2013-01-21 21:33:00,
2013-01-21 13:43:00,74.0,20.0,-100.00,WNW,296,6.0,11.0,13,0.00,,,0.00,534.000000,,2013-01-21 21:43:00,
2013-01-21 13:52:00,74.0,20.0,-100.00,WNW,296,6.0,11.0,13,0.00,,,0.00,534.000000,,2013-01-21 21:52:00,
2013-01-21 14:12:00,76.0,20.0,-100.00,NW,312,5.0,10.0,12,0.00,,,0.00,515.000000,,2013-01-21 22:12:00,
2013-01-21 14:23:00,76.0,20.0,-100.00,NW,312,5.0,10.0,12,0.00,,,0.00,515.000000,,2013-01-21 22:23:00,
2013-01-21 14:33:00,76.0,20.0,-100.00,NW,312,5.0,10.0,12,0.00,,,0.00,515.000000,,2013-01-21 22:33:00,
2013-01-21 14:42:00,76.0,20.0,-100.00,NW,312,5.0,10.0,12,0.00,,,0.00,515.000000,,2013-01-21 22:42:00,
2013-01-21 14:52:00,76.0,20.0,-100.00,NW,312,5.0,10.0,12,0.00,,,0.00,515.000000,,2013-01-21 22:52:00,
2013-01-21 15:22:00,77.0,22.0,-100.00,WNW,291,3.0,8.0,13,0.00,,,0.00,437.000000,,2013-01-21 23:22:00,
2013-01-21 15:33:00,77.0,22.0,-100.00,WNW,291,3.0,8.0,13,0.00,,,0.00,437.000000,,2013-01-21 23:33:00,
2013-01-21 15:42:00,77.0,22.0,-100.00,WNW,291,3.0,8.0,13,0.00,,,0.00,437.000000,,2013-01-21 23:42:00,
2013-01-21 15:52:00,77.0,22.0,-100.00,WNW,291,3.0,8.0,13,0.00,,,0.00,437.000000,,2013-01-21 23:52:00,
2013-01-21 16:22:00,75.0,24.0,-100.00,NW,321,5.0,8.0,15,0.00,,,0.00,304.000000,,2013-01-22 00:22:00,
2013-01-21 16:32:00,75.0,24.0,-100.00,NW,321,5.0,8.0,15,0.00,,,0.00,304.000000,,2013-01-22 00:32:00,
2013-01-21 16:42:00,75.0,24.0,-100.00,NW,321,5.0,8.0,15,0.00,,,0.00,304.000000,,2013-01-22 00:42:00,
2013-01-21 16:52:00,75.0,24.0,-100.00,NW,321,5.0,8.0,15,0.00,,,0.00,304.000000,,2013-01-22 00:52:00,
2013-01-21 17:12:00,71.0,25.0,-100.00,ESE,121,2.0,10.0,18,0.00,,,0.00,145.000000,,2013-01-22 01:12:00,
2013-01-21 17:23:00,71.0,25.0,-100.00,ESE,121,2.0,10.0,18,0.00,,,0.00,145.000000,,2013-01-22 01:23:00,
2013-01-21 17:32:00,71.0,25.0,-100.00,ESE,121,2.0,10.0,18,0.00,,,0.00,145.000000,,2013-01-22 01:32:00,
2013-01-21 17:42:00,71.0,25.0,-100.00,ESE,121,2.0,10.0,18,0.00,,,0.00,145.000000,,2013-01-22 01:42:00,
2013-01-21 17:52:00,71.0,25.0,-100.00,ESE,121,2.0,10.0,18,0.00,,,0.00,145.000000,,2013-01-22 01:52:00,
2013-01-21 18:22:00,65.0,26.0,-100.00,East,81,2.0,6.0,23,0.00,,,0.00,7.000000,,2013-01-22 02:22:00,
2013-01-21 18:32:00,65.0,26.0,-100.00,East,81,2.0,6.0,23,0.00,,,0.00,7.000000,,2013-01-22 02:32:00,
2013-01-21 18:42:00,65.0,26.0,-100.00,East,81,2.0,6.0,23,0.00,,,0.00,7.000000,,2013-01-22 02:42:00,
2013-01-21 18:52:00,65.0,26.0,-100.00,East,81,2.0,6.0,23,0.00,,,0.00,7.000000,,2013-01-22 02:52:00,
2013-01-21 19:12:00,62.0,25.0,-100.00,East,83,2.0,5.0,24,0.00,,,0.00,0.000000,,2013-01-22 03:12:00,
2013-01-21 19:42:00,62.0,25.0,-100.00,East,83,2.0,5.0,24,0.00,,,0.00,0.000000,,2013-01-22 03:42:00,
2013-01-21 19:52:00,62.0,25.0,-100.00,East,83,2.0,5.0,24,0.00,,,0.00,0.000000,,2013-01-22 03:52:00,
2013-01-21 20:12:00,53.0,27.0,-100.00,East,89,2.0,5.0,36,-99.99,,,0.00,0.000000,,2013-01-22 04:12:00,
2013-01-21 20:22:00,53.0,27.0,-100.00,East,89,2.0,5.0,36,-99.99,,,0.00,0.000000,,2013-01-22 04:22:00,
2013-01-21 20:32:00,53.0,27.0,-100.00,East,89,2.0,5.0,36,-99.99,,,0.00,0.000000,,2013-01-22 04:32:00,
2013-01-21 20:42:00,53.0,27.0,-100.00,East,89,2.0,5.0,36,-99.99,,,0.00,0.000000,,2013-01-22 04:42:00,
2013-01-21 20:52:00,53.0,27.0,-100.00,East,89,2.0,5.0,36,-99.99,,,0.00,0.000000,,2013-01-22 04:52:00,
2013-01-21 21:12:00,54.0,25.0,-100.00,WSW,238,2.0,4.0,32,0.00,,,0.00,0.000000,,2013-01-22 05:12:00,
2013-01-21 21:22:00,54.0,25.0,-100.00,WSW,238,2.0,4.0,32,0.00,,,0.00,0.000000,,2013-01-22 05:22:00,
2013-01-21 21:32:00,54.0,25.0,-100.00,WSW,238,2.0,4.0,32,0.00,,,0.00,0.000000,,2013-01-22 05:32:00,
2013-01-21 21:42:00,54.0,25.0,-100.00,WSW,238,2.0,4.0,32,0.00,,,0.00,0.000000,,2013-01-22 05:42:00,
2013-01-21 21:52:00,54.0,25.0,-100.00,WSW,238,2.0,4.0,32,0.00,,,0.00,0.000000,,2013-01-22 05:52:00,
2013-01-21 22:22:00,50.0,23.0,-100.00,NNE,24,2.0,5.0,35,-99.99,,,0.00,0.000000,,2013-01-22 06:22:00,
2013-01-21 22:32:00,50.0,23.0,-100.00,NNE,24,2.0,5.0,35,-99.99,,,0.00,0.000000,,2013-01-22 06:32:00,
2013-01-21 22:42:00,50.0,23.0,-100.00,NNE,24,2.0,5.0,35,-99.99,,,0.00,0.000000,,2013-01-22 06:42:00,
2013-01-21 22:52:00,50.0,23.0,-100.00,NNE,24,2.0,5.0,35,-99.99,,,0.00,0.000000,,2013-01-22 06:52:00,
2013-01-21 23:12:00,50.0,23.0,-100.00,SE,142,2.0,4.0,34,0.00,,,0.00,0.000000,,2013-01-22 07:12:00,
2013-01-21 23:22:00,50.0,23.0,-100.00,SE,142,2.0,4.0,34,0.00,,,0.00,0.000000,,2013-01-22 07:22:00,
2013-01-21 23:42:00,50.0,23.0,-100.00,SE,142,2.0,4.0,34,0.00,,,0.00,0.000000,,2013-01-22 07:42:00,
2013-01-21 23:52:00,50.0,23.0,-100.00,SE,142,2.0,4.0,34,0.00,,,0.00,0.000000,,2013-01-22 07:52:00,